This is the latest recevied weather packets stored in our database for station/object VA3XLC. If no packets are shown the sender has not sent any weather packets the latest 10 day(s).
| Time | Temp. | Humidity | Pressure | Rain* | Wind** | Luminosity | Snow |
|---|---|---|---|---|---|---|---|
| 1777718334 | 1.67° C | 74% | 983.3 hPa | - | - | 13 W/m² | - |
| 1777713164 | 1.67° C | 74% | 982.9 hPa | - | - | 0 W/m² | - |
| 1777712864 | 1.67° C | 74% | 982.9 hPa | - | - | 0 W/m² | - |
| 1777711663 | 1.67° C | 74% | 982.8 hPa | - | - | 0 W/m² | - |
| 1777710440 | 1.67° C | 73% | 982.6 hPa | - | - | 0 W/m² | - |
| 1777710140 | 1.67° C | 74% | 982.6 hPa | - | - | 0 W/m² | - |
| 1777708940 | 1.67° C | 74% | 982.5 hPa | - | - | 0 W/m² | - |
| 1777708639 | 1.67° C | 74% | 982.5 hPa | - | - | 0 W/m² | - |
| 1777708039 | 1.67° C | 74% | 982.5 hPa | - | - | 0 W/m² | - |
| 1777707739 | 1.67° C | 76% | 982.5 hPa | - | - | 0 W/m² | - |
| 1777704958 | 2.22° C | 76% | 982.9 hPa | - | - | 0 W/m² | - |
| 1777700091 | 1.67° C | 71% | 983.1 hPa | - | - | 0 W/m² | - |
| 1777699169 | 1.67° C | 70% | 983.2 hPa | - | - | 0 W/m² | - |
| 1777697346 | 1.11° C | 69% | 983 hPa | - | - | 0 W/m² | - |
| 1777695802 | 1.11° C | 69% | 983 hPa | - | - | 0 W/m² | - |
| 1777694860 | 1.67° C | 66% | 982.8 hPa | - | - | 0 W/m² | - |
| 1777694259 | 1.67° C | 65% | 982.7 hPa | - | - | 0 W/m² | - |
| 1777693036 | 1.67° C | 63% | 982.9 hPa | - | - | 0 W/m² | - |
| 1777690612 | 1.67° C | 64% | 982.7 hPa | - | - | 0 W/m² | - |
| 1777690312 | 1.67° C | 63% | 982.6 hPa | - | - | 0 W/m² | - |
| 1777688488 | 2.22° C | 60% | 982.6 hPa | - | - | 0 W/m² | - |
| 1777688187 | 2.22° C | 60% | 982.6 hPa | - | - | 0 W/m² | - |
| 1777687887 | 2.22° C | 59% | 982.5 hPa | - | - | 0 W/m² | - |
| 1777686322 | 2.22° C | 57% | 982.3 hPa | - | - | 0 W/m² | - |
| 1777685720 | 2.78° C | 54% | 982.2 hPa | - | - | 0 W/m² | - |
* Rain since midnight (hover to see other rain measurements)
** Current wind speed in m/s (hover to see current wind gust speed)